GSAT-15 (GAGAN/PRN 139)

Last updated on May 20, 2019, 3:10 a.m. UTC

1 41028U 15065A   19139.48823925 -.00000267  00000-0  00000+0 0  9991
2 41028   0.0484 283.4369 0003979 124.0787  98.5816  1.00270057 12939
UTC
Height (km)
Latitude
Longitude
Inclination
Orbital Period
UTC large
Height (km)
Speed (km/s)
/
Latitude / Longitude
Inclination (degrees)
Orbital Period (minutes)
Azimuth
Elevation
Range (km)
Doppler Factor
iOS Compass Heading
iOS Angle

Next 30 passes for location: Hong Kong

Rise time Rise Azimuth (degrees) Set time Set Azimuth (degrees) Duration Max altitude (degrees)

No matching passes for this satellites